Weather History for KGFK - September, 2013

Change the Weather History Date:

Tuesday, September 24, 2013

  Actual Average Record
Temperature  
Mean Temperature 66 °F 53 °F  
Max Temperature 80 °F 66 °F 87 °F (1997)
Min Temperature 51 °F 41 °F 25 °F (1951)
Degree Days  
Heating Degree Days 0 12  
Month to date heating degree days 98 186  
Since 1 July heating degree days 180 268  
Cooling Degree Days 1 0  
Month to date cooling degree days 38 24  
Year to date cooling degree days 486 376  
Growing Degree Days 16 (Base 50)    
Moisture  
Dew Point 48 °F    
Average Humidity 55    
Maximum Humidity 93    
Minimum Humidity 17    
Precipitation  
Precipitation T in 0.06 in 1.88 in (1973)
Month to date precipitation 0.69 1.66  
Year to date precipitation 14.92 16.89  
Snow  
Snow 0.00 in 0.00 in T in (1984)
Month to date snowfall 0.0 0.0  
Since 1 July snowfall 0.0 0.0  
Since 1 September snowfall 0.0 0.0  
Snow Depth 0.00 in    
Sea Level Pressure  
Sea Level Pressure 29.82 in    
Wind  
Wind Speed 6 mph (SW)    
Max Wind Speed 15 mph    
Max Gust Speed 20 mph    
Visibility 10 miles    
Events      
T = Trace of Precipitation, MM = Missing Value Source: NWS Daily Summary

Daily Weather History Graph

Daily Weather History Graph

Search for Another Location

Airport or City:

Trip Planner

Search our weather history database for the weather conditions in past years. The results will help you decide how hot, cold, wet, or windy it might be!

Date:

Astronomy

Sep. 24, 2013 Rise Set
Actual Time 7:18 AM CDT 7:21 PM CDT
Civil Twilight 6:47 AM CDT 7:52 PM CDT
Nautical Twilight 6:11 AM CDT 8:28 PM CDT
Astronomical Twilight 5:33 AM CDT 9:06 PM CDT
Moon 10:17 PM CDT (9/24) 12:57 PM CDT (9/24)
Length of Visible Light 13h 04m
Length of Day
12h 03m
Waning Gibbous, 73% of the Moon is Illuminated
Sep 24
Waning Gibbous
Sep 26
Last Quarter
Oct 4
New
Oct 11
First Quarter
Oct 18
Full

Hourly Weather History & Observations

Time (CDT) Temp. Dew Point Humidity Pressure Visibility Wind Dir Wind Speed Gust Speed Precip Events Conditions
12:53 AM 61.0 °F 55.9 °F 83% 29.74 in 10.0 mi West 4.6 mph - N/A   Mostly Cloudy
1:53 AM 60.1 °F 55.9 °F 86% 29.75 in 10.0 mi West 4.6 mph - N/A   Overcast
2:53 AM 57.0 °F 54.0 °F 89% 29.77 in 10.0 mi WSW 4.6 mph - N/A   Mostly Cloudy
3:53 AM 57.0 °F 54.0 °F 89% 29.78 in 10.0 mi WSW 4.6 mph - N/A   Overcast
4:53 AM 57.0 °F 54.0 °F 89% 29.80 in 10.0 mi WSW 5.8 mph - N/A   Overcast
5:53 AM 55.9 °F 54.0 °F 93% 29.81 in 10.0 mi Calm Calm - N/A   Mostly Cloudy
6:53 AM 55.9 °F 54.0 °F 93% 29.82 in 10.0 mi SSW 3.5 mph - N/A   Overcast
7:53 AM 57.0 °F 54.0 °F 89% 29.83 in 10.0 mi SSW 3.5 mph - N/A   Mostly Cloudy
8:53 AM 57.9 °F 54.0 °F 87% 29.85 in 10.0 mi South 5.8 mph - 0.00 in   Mostly Cloudy
9:53 AM 60.1 °F 54.0 °F 80% 29.86 in 10.0 mi SSW 6.9 mph - N/A   Scattered Clouds
10:53 AM 66.0 °F 54.0 °F 65% 29.86 in 10.0 mi South 8.1 mph - N/A   Partly Cloudy
11:53 AM 71.1 °F 52.0 °F 51% 29.86 in 10.0 mi SSW 9.2 mph - N/A   Partly Cloudy
12:53 PM 73.9 °F 51.1 °F 45% 29.85 in 10.0 mi SSE 8.1 mph - N/A   Partly Cloudy
1:53 PM 77.0 °F 46.9 °F 34% 29.83 in 10.0 mi South 10.4 mph 16.1 mph N/A   Partly Cloudy
2:53 PM 79.0 °F 30.9 °F 17% 29.83 in 10.0 mi WSW 12.7 mph 18.4 mph N/A   Scattered Clouds
3:53 PM 79.0 °F 34.0 °F 20% 29.82 in 10.0 mi West 6.9 mph - N/A   Scattered Clouds
4:53 PM 78.1 °F 34.0 °F 20% 29.81 in 10.0 mi West 4.6 mph - N/A   Partly Cloudy
5:53 PM 77.0 °F 35.1 °F 22% 29.81 in 10.0 mi SW 5.8 mph - N/A   Partly Cloudy
6:53 PM 71.1 °F 41.0 °F 34% 29.81 in 10.0 mi SSW 3.5 mph - N/A   Clear
7:53 PM 64.9 °F 45.0 °F 48% 29.82 in 10.0 mi SSE 8.1 mph - N/A   Clear
8:53 PM 64.0 °F 48.9 °F 58% 29.83 in 10.0 mi South 8.1 mph - N/A   Clear
9:53 PM 57.0 °F 48.0 °F 72% 29.84 in 10.0 mi Calm Calm - N/A   Clear
10:53 PM 54.0 °F 46.9 °F 77% 29.85 in 10.0 mi South 4.6 mph - N/A   Clear
11:53 PM 54.0 °F 46.9 °F 77% 29.85 in 10.0 mi South 4.6 mph - N/A   Clear